When you browse on this site, cookies collect data to enhance your experience and personalize the content and advertising you see.
Visit our Privacy Policy to learn more. By continuing to use the site, you agree to this use of cookies and data.
  • In Schweiz
  • Länderverzeichnis
  • Für 7 Tage
  • Wassertemperatur
  • Wetterkarte
  • Widgets
  • user-avatar
    Anmelden

    Stündliche Wetter Raduhino

    Heute, 19 August, Montag

    Zeit Temperatur Niederschläge Wind Luftdruck Luftfeuchtigkeit
    00:00 +15°C° 0 mm 1 m/S 754 mmHg 85%
    01:00 +14°C° 0 mm 2 m/S 754 mmHg 87%
    02:00 +14°C° 0 mm 2 m/S 754 mmHg 90%
    03:00 +14°C° 0 mm 2 m/S 753 mmHg 89%
    04:00 +14°C° 0 mm 2 m/S 753 mmHg 89%
    05:00 +13°C° 0 mm 3 m/S 753 mmHg 88%
    06:00 +14°C° 0 mm 3 m/S 753 mmHg 83%
    07:00 +16°C° 0 mm 3 m/S 753 mmHg 79%
    08:00 +18°C° 0 mm 3 m/S 753 mmHg 74%
    09:00 +18°C° 0 mm 3 m/S 753 mmHg 76%
    10:00 +19°C° 0 mm 3 m/S 753 mmHg 78%
    11:00 +19°C° 0 mm 3 m/S 753 mmHg 79%
    12:00 +21°C° 0 mm 3 m/S 753 mmHg 74%
    13:00 +23°C° 0 mm 4 m/S 753 mmHg 70%
    14:00 +27°C° 0 mm 4 m/S 753 mmHg 65%
    15:00 +26°C° 0.4 mm 4 m/S 753 mmHg 70%
    16:00 +26°C° 0.4 mm 3 m/S 753 mmHg 76%
    17:00 +25°C° 0.4 mm 3 m/S 753 mmHg 81%
    18:00 +24°C° 0.3 mm 3 m/S 753 mmHg 85%
    19:00 +21°C° 0.3 mm 3 m/S 753 mmHg 90%
    20:00 +20°C° 0.3 mm 2 m/S 753 mmHg 94%
    21:00 +20°C° 0 mm 2 m/S 754 mmHg 95%
    22:00 +19°C° 0 mm 2 m/S 754 mmHg 96%
    23:00 +19°C° 0 mm 2 m/S 754 mmHg 97%

    Morgen, 20 August, Dienstag

    Zeit Temperatur Niederschläge Wind Luftdruck Luftfeuchtigkeit
    00:00 +19°C° 0.1 mm 2 m/S 755 mmHg 97%
    01:00 +18°C° 0.1 mm 2 m/S 756 mmHg 97%
    02:00 +18°C° 0.1 mm 2 m/S 756 mmHg 97%
    03:00 +17°C° 0.1 mm 2 m/S 757 mmHg 96%
    04:00 +16°C° 0.1 mm 2 m/S 757 mmHg 96%
    05:00 +16°C° 0.1 mm 2 m/S 757 mmHg 95%
    06:00 +16°C° 0 mm 2 m/S 758 mmHg 92%
    07:00 +18°C° 0 mm 1 m/S 758 mmHg 89%
    08:00 +19°C° 0 mm 1 m/S 758 mmHg 86%
    09:00 +19°C° 0 mm 2 m/S 759 mmHg 77%
    10:00 +20°C° 0 mm 2 m/S 759 mmHg 68%
    11:00 +23°C° 0 mm 2 m/S 759 mmHg 59%
    12:00 +23°C° 0 mm 2 m/S 759 mmHg 57%
    13:00 +24°C° 0 mm 2 m/S 759 mmHg 54%
    14:00 +25°C° 0 mm 2 m/S 760 mmHg 52%
    15:00 +25°C° 0 mm 2 m/S 760 mmHg 55%
    16:00 +25°C° 0 mm 2 m/S 760 mmHg 58%
    17:00 +24°C° 0 mm 1 m/S 760 mmHg 61%
    18:00 +23°C° 0 mm 1 m/S 760 mmHg 66%
    19:00 +21°C° 0 mm 1 m/S 760 mmHg 71%
    20:00 +19°C° 0 mm 1 m/S 760 mmHg 76%
    21:00 +18°C° 0 mm 1 m/S 761 mmHg 79%
    22:00 +16°C° 0 mm 1 m/S 761 mmHg 82%
    23:00 +16°C° 0 mm 1 m/S 761 mmHg 85%

    übermorgen, 21 August, Mittwoch

    Zeit Temperatur Niederschläge Wind Luftdruck Luftfeuchtigkeit
    00:00 +15°C° 0 mm 1 m/S 761 mmHg 86%
    01:00 +15°C° 0 mm 1 m/S 762 mmHg 87%
    02:00 +15°C° 0 mm 1 m/S 762 mmHg 89%
    03:00 +15°C° 0 mm 1 m/S 762 mmHg 89%
    04:00 +15°C° 0 mm 1 m/S 762 mmHg 89%
    05:00 +14°C° 0 mm 1 m/S 761 mmHg 89%
    06:00 +16°C° 0 mm 1 m/S 761 mmHg 84%
    07:00 +18°C° 0 mm 1 m/S 761 mmHg 79%
    08:00 +20°C° 0 mm 1 m/S 761 mmHg 74%
    09:00 +20°C° 0.1 mm 1 m/S 761 mmHg 75%
    10:00 +20°C° 0.1 mm 1 m/S 761 mmHg 76%
    11:00 +21°C° 0.1 mm 1 m/S 761 mmHg 77%
    12:00 +20°C° 0.9 mm 1 m/S 761 mmHg 83%
    13:00 +19°C° 0.9 mm 1 m/S 761 mmHg 89%
    14:00 +18°C° 0.9 mm 1 m/S 761 mmHg 95%
    15:00 +18°C° 1.4 mm 1 m/S 760 mmHg 95%
    16:00 +16°C° 1.4 mm 1 m/S 760 mmHg 95%
    17:00 +16°C° 1.4 mm 2 m/S 760 mmHg 94%
    18:00 +16°C° 0.3 mm 1 m/S 760 mmHg 95%
    19:00 +15°C° 0.3 mm 1 m/S 760 mmHg 96%
    20:00 +14°C° 0.3 mm 0 m/S 760 mmHg 97%
    21:00 +14°C° 0 mm 1 m/S 760 mmHg 97%
    22:00 +14°C° 0 mm 1 m/S 761 mmHg 97%
    23:00 +13°C° 0 mm 1 m/S 761 mmHg 97%

    22 August, Donnerstag

    Zeit Temperatur Niederschläge Wind Luftdruck Luftfeuchtigkeit
    00:00 +13°C° 0 mm 1 m/S 761 mmHg 97%
    01:00 +13°C° 0 mm 1 m/S 761 mmHg 97%
    02:00 +12°C° 0 mm 1 m/S 762 mmHg 96%
    03:00 +12°C° 0 mm 1 m/S 762 mmHg 96%
    04:00 +11°C° 0 mm 1 m/S 762 mmHg 96%
    05:00 +11°C° 0 mm 1 m/S 762 mmHg 96%
    06:00 +13°C° 0 mm 1 m/S 762 mmHg 94%
    07:00 +14°C° 0 mm 1 m/S 762 mmHg 91%
    08:00 +16°C° 0 mm 1 m/S 762 mmHg 89%
    09:00 +18°C° 0 mm 1 m/S 762 mmHg 81%
    10:00 +20°C° 0 mm 1 m/S 762 mmHg 74%
    11:00 +21°C° 0 mm 1 m/S 763 mmHg 66%
    12:00 +21°C° 0 mm 2 m/S 762 mmHg 62%
    13:00 +21°C° 0 mm 2 m/S 762 mmHg 58%
    14:00 +21°C° 0 mm 2 m/S 762 mmHg 54%
    15:00 +21°C° 0 mm 2 m/S 762 mmHg 57%
    16:00 +22°C° 0 mm 1 m/S 762 mmHg 59%
    17:00 +21°C° 0 mm 1 m/S 762 mmHg 62%
    18:00 +19°C° 0 mm 1 m/S 762 mmHg 66%
    19:00 +16°C° 0 mm 1 m/S 762 mmHg 70%
    20:00 +13°C° 0 mm 0 m/S 762 mmHg 73%
    21:00 +13°C° 0 mm 0 m/S 762 mmHg 75%
    22:00 +13°C° 0 mm 1 m/S 762 mmHg 78%
    23:00 +13°C° 0 mm 1 m/S 762 mmHg 80%

    23 August, Freitag

    Zeit Temperatur Niederschläge Wind Luftdruck Luftfeuchtigkeit
    00:00 +12°C° 0 mm 1 m/S 763 mmHg 81%
    01:00 +12°C° 0 mm 1 m/S 763 mmHg 83%
    02:00 +12°C° 0 mm 1 m/S 763 mmHg 85%
    03:00 +13°C° 0 mm 1 m/S 763 mmHg 85%
    04:00 +13°C° 0 mm 1 m/S 763 mmHg 85%
    05:00 +13°C° 0 mm 1 m/S 763 mmHg 85%
    06:00 +14°C° 0 mm 1 m/S 763 mmHg 81%
    07:00 +15°C° 0 mm 1 m/S 763 mmHg 78%
    08:00 +16°C° 0 mm 1 m/S 763 mmHg 74%
    09:00 +18°C° 0 mm 1 m/S 763 mmHg 70%
    10:00 +19°C° 0 mm 2 m/S 763 mmHg 65%
    11:00 +20°C° 0 mm 2 m/S 763 mmHg 60%
    12:00 +20°C° 0 mm 2 m/S 763 mmHg 57%
    13:00 +21°C° 0 mm 2 m/S 763 mmHg 54%
    14:00 +21°C° 0 mm 2 m/S 763 mmHg 51%
    15:00 +21°C° 0 mm 2 m/S 763 mmHg 54%
    16:00 +21°C° 0 mm 2 m/S 763 mmHg 56%
    17:00 +21°C° 0 mm 2 m/S 763 mmHg 58%
    18:00 +20°C° 0 mm 1 m/S 763 mmHg 65%
    19:00 +18°C° 0 mm 1 m/S 763 mmHg 73%
    20:00 +15°C° 0 mm 1 m/S 763 mmHg 80%
    21:00 +14°C° 0 mm 1 m/S 764 mmHg 83%
    22:00 +14°C° 0 mm 1 m/S 764 mmHg 85%
    23:00 +13°C° 0 mm 1 m/S 764 mmHg 88%

    24 August, Samstag

    Zeit Temperatur Niederschläge Wind Luftdruck Luftfeuchtigkeit
    00:00 +13°C° 0 mm 1 m/S 764 mmHg 90%
    01:00 +12°C° 0 mm 1 m/S 764 mmHg 91%
    02:00 +12°C° 0 mm 1 m/S 765 mmHg 93%
    03:00 +12°C° 0 mm 1 m/S 765 mmHg 94%
    04:00 +12°C° 0 mm 1 m/S 765 mmHg 94%
    05:00 +10°C° 0 mm 0 m/S 765 mmHg 94%
    06:00 +12°C° 0 mm 0 m/S 765 mmHg 89%
    07:00 +14°C° 0 mm 0 m/S 765 mmHg 83%
    08:00 +16°C° 0 mm 0 m/S 765 mmHg 77%
    09:00 +18°C° 0 mm 0 m/S 765 mmHg 71%
    10:00 +21°C° 0 mm 1 m/S 765 mmHg 65%
    11:00 +23°C° 0 mm 1 m/S 765 mmHg 59%
    12:00 +23°C° 0 mm 1 m/S 765 mmHg 58%
    13:00 +23°C° 0 mm 1 m/S 765 mmHg 56%
    14:00 +23°C° 0 mm 1 m/S 764 mmHg 54%
    15:00 +23°C° 0 mm 1 m/S 764 mmHg 56%
    16:00 +23°C° 0 mm 1 m/S 764 mmHg 58%
    17:00 +22°C° 0 mm 1 m/S 764 mmHg 61%
    18:00 +20°C° 0 mm 1 m/S 764 mmHg 67%
    19:00 +18°C° 0 mm 1 m/S 764 mmHg 73%
    20:00 +16°C° 0 mm 1 m/S 764 mmHg 79%
    21:00 +15°C° 0 mm 1 m/S 764 mmHg 81%
    22:00 +14°C° 0 mm 1 m/S 764 mmHg 83%
    23:00 +14°C° 0 mm 1 m/S 764 mmHg 85%
    Mehr zeigen